Location: Malvern Link
(52.1333°N, 2.3000°W)
Time: 15:37:56
(UTC+00:00)

X-37B - Pass Details

Date: 29 January 2022
Orbit: 329 x 342 km, 45.0° (Epoch: 18 May)

Event Time Altitude Azimuth Distance (km) Brightness Sun altitude
Rises 18:15:07 0° 214° (SW) 2,112 5.1 -12.9°
Reaches altitude 10° 18:18:20 10° 174° (S) 1,274 3.3 -13.3°
Maximum altitude 18:19:07 11° 158° (SSE) 1,228 3.0 -13.5°
Enters shadow 18:19:53 10° 142° (SE) 1,271 2.9 -13.6°
